Location: Newark
(0.5300°S, 127.4800°E)
Time: 16:28:28
(UTC+00:00)

Vanguard 2 - Visible Passes

Search period start: 15 September 2019 00:00
Search period end: 25 September 2019 00:00
Orbit: 554 x 2937 km, 32.9° (Epoch: 15 September)

Date Brightness Start Highest point End Pass type
(mag) Time Alt. Az. Time Alt. Az. Time Alt. Az.
15 Sep 11.5 10:52:11 10° SSW 10:59:28 15° S 11:07:39 10° SE visible
15 Sep 11.4 13:02:30 10° SSW 13:09:34 23° S 13:09:34 23° S visible
15 Sep 10.8 17:51:21 22° NNE 17:51:21 22° NNE 17:53:58 10° NE visible
15 Sep 10.6 19:52:46 14° NW 19:53:57 14° NW 19:58:31 10° N visible
16 Sep 11.4 11:10:36 10° SSW 11:19:15 17° SSE 11:24:51 14° SE visible
16 Sep 11.4 13:20:15 10° SSW 13:26:15 23° SSW 13:26:15 23° SSW visible
16 Sep 10.7 18:08:16 23° NNE 18:08:16 23° NNE 18:11:27 10° NNE visible
17 Sep 11.3 11:28:32 10° SSW 11:38:50 20° SSE 11:41:34 19° SSE visible
17 Sep 11.4 13:37:59 10° SW 13:42:57 23° SSW 13:42:57 23° SSW visible
17 Sep 10.7 18:25:08 22° N 18:25:08 22° N 18:28:44 10° NNE visible
18 Sep 11.5 09:38:28 10° S 09:41:48 11° S 09:45:25 10° SSE visible
18 Sep 11.1 11:46:15 10° SSW 11:58:09 25° SSE 11:58:17 25° SSE visible
18 Sep 11.5 13:55:48 10° SW 13:59:41 21° SW 13:59:41 21° SW visible
18 Sep 10.8 18:41:59 19° N 18:41:59 19° N 18:45:47 10° NNE visible
19 Sep 11.4 09:56:19 10° S 10:01:28 13° SSE 10:07:17 10° SE visible
19 Sep 11.0 12:03:51 10° SSW 12:15:03 30° SSE 12:15:03 30° SSE visible
19 Sep 11.6 14:13:42 10° SW 14:16:27 18° SW 14:16:27 18° SW visible
19 Sep 10.9 18:58:47 15° NNW 18:58:47 15° NNW 19:02:28 10° N visible
20 Sep 11.3 10:13:48 10° S 10:20:58 15° SSE 10:29:21 10° SE visible
20 Sep 10.8 12:21:28 10° SSW 12:31:52 36° S 12:31:52 36° S visible
20 Sep 11.8 14:31:47 10° SW 14:33:16 14° SW 14:33:16 14° SW visible
20 Sep 11.4 17:14:09 11° NNE 17:14:09 11° NNE 17:14:21 10° NNE visible
20 Sep 11.1 19:15:33 11° NNW 19:15:33 11° NNW 19:18:05 10° NNW visible
21 Sep 11.1 10:31:10 10° SSW 10:40:14 20° SSE 10:47:19 15° SE visible
21 Sep 10.8 12:39:07 10° SW 12:48:44 39° S 12:48:44 39° S visible
21 Sep 11.9 14:50:06 10° WSW 14:50:08 10° WSW 14:50:08 10° WSW visible
21 Sep 11.3 17:30:54 12° NNE 17:30:54 12° NNE 17:31:43 10° NNE visible
22 Sep 11.0 10:48:32 10° SSW 10:59:12 25° SSE 11:04:13 22° SE visible
22 Sep 10.8 12:56:53 10° SW 13:05:38 41° SSW 13:05:38 41° SSW visible
22 Sep 11.3 17:47:37 13° N 17:47:37 13° N 17:48:55 10° NNE visible
23 Sep 10.7 11:05:57 10° SSW 11:17:55 32° SSE 11:21:11 30° SE visible
23 Sep 10.9 13:14:47 10° SW 13:22:36 39° SW 13:22:36 39° SW visible
23 Sep 11.3 18:04:19 13° N 18:04:19 13° N 18:05:57 10° N visible
24 Sep 10.5 11:23:26 10° SSW 11:36:23 41° SE 11:38:13 40° SE visible
24 Sep 11.0 13:32:52 10° SW 13:39:38 34° SW 13:39:38 34° SW visible
24 Sep 11.3 18:20:59 12° N 18:20:59 12° N 18:22:38 10° N visible
